Wind_Speed
2 1 4 6 6 4 3 0 5 8 6 6 8 14 15 25 24 23 25 22 21 21 20 15 16 20 22 26 29 30 32 33 33 36 36 36 38 41 43 41 39 38 34 37
1 6 6 6 4 3 2 4 5 5 4 9 11 21 21 22 24 27 11 13 17 13 10 16 19 23 25 27 29 31 33 32 33 33 36 36 36 38 40 44 44 41 39 36
5 5 5 2 2 2 2 3 5 5 10 8 11 9 6 1 3 1 5 8 9 12 16 23 28 30 31 31 31 32 31 34 34 34 33 34 34 32 32 37 43 46 45 43
6 5 1 1 2 3 2 6 5 6 6 3 10 7 5 10 8 7 10 13 9 22 26 30 30 28 31 32 32 29 31 33 35 34 34 35 37 40 38 34 35 40 44 44
3 5 4 2 2 5 1 3 5 5 3 6 4 5 6 8 3 2 1 17 26 29 31 32 29 30 30 32 32 31 35 32 34 35 35 36 37 38 39 39 36 34 36 38
4 2 3 4 4 2 6 6 6 2 1 4 8 6 5 2 5 9 19 26 29 28 30 29 29 31 27 26 27 31 33 34 35 38 38 37 38 37 37 34 34 36 32 35
3 2 2 1 1 4 3 3 2 2 3 5 3 0 8 14 7 11 13 23 28 28 29 31 30 30 27 26 25 23 24 29 32 34 36 36 37 38 37 36 33 32 31 33
3 2 3 5 3 1 3 1 1 4 3 4 1 5 5 6 16 19 21 26 28 29 31 28 26 25 25 28 23 17 20 22 24 23 27 31 32 37 38 35 34 33 34 32
2 3 4 2 3 3 2 1 3 3 6 4 4 5 3 12 16 28 32 30 32 34 29 26 23 20 23 24 18 15 16 18 18 19 21 25 27 29 34 34 35 33 30 29
3 1 2 3 2 3 2 2 1 2 3 4 4 3 3 14 16 18 23 28 32 29 27 25 21 19 16 16 17 12 11 16 14 18 19 20 21 23 27 29 32 32 29 29
2 1 1 1 5 6 3 2 5 3 2 3 4 3 2 7 13 17 23 32 33 32 30 25 22 19 18 16 13 10 9 11 13 16 16 15 16 15 18 21 24 27 30 32
4 0 3 7 7 8 7 5 6 2 1 3 2 5 3 7 14 17 23 28 28 26 27 27 28 30 32 29 22 14 9 7 13 14 14 15 15 15 16 18 20 22 24 25
5 3 3 5 2 3 4 6 6 3 1 5 3 4 3 14 16 16 20 24 24 24 24 27 31 34 33 35 26 19 11 7 10 8 13 13 13 16 18 19 20 21 22 24
1 3 5 3 3 1 4 5 10 6 2 3 7 12 9 8 11 14 19 19 20 21 20 25 30 32 33 32 30 26 23 13 8 14 11 10 13 14 17 16 15 17 20 22
3 4 7 10 11 11 11 10 11 8 12 4 6 6 9 6 6 10 15 16 17 20 24 25 27 28 30 29 29 29 22 18 8 8 11 9 6 8 13 15 14 13 13 16
5 4 6 8 13 12 12 14 14 15 15 15 15 18 13 5 3 5 12 12 15 17 19 21 23 26 26 28 25 24 25 24 17 11 0 7 8 8 3 5 9 9 12 15
4 2 4 5 5 7 10 8 15 10 8 11 11 9 3 3 5 5 10 9 10 13 15 19 21 22 22 23 24 26 25 26 26 21 15 8 2 3 7 7 7 6 7 6
4 3 3 4 8 3 5 5 2 5 10 11 10 7 5 5 5 8 8 9 8 9 11 14 17 18 19 18 19 20 24 25 28 24 20 14 10 7 3 7 8 8 6 7
9 3 3 2 3 9 6 3 2 4 5 11 13 7 8 5 4 15 16 9 5 6 8 9 10 13 15 16 17 16 18 22 25 28 22 17 13 8 8 5 2 3 3 7
2 5 2 3 2 4 1 5 3 1 5 6 7 7 9 11 1 3 12 8 6 5 6 7 8 11 12 12 14 15 17 18 20 22 22 19 17 18 18 16 10 8 7 6
3 4 6 5 4 7 3 8 4 2 4 2 3 6 12 6 11 7 7 9 8 7 6 6 7 9 12 12 12 12 12 15 15 14 14 15 16 16 16 16 15 14 13 13
7 6 4 4 4 8 12 6 5 2 4 4 5 7 10 13 13 11 12 11 11 10 8 7 7 8 9 11 10 11 11 12 11 10 9 8 8 8 10 10 11 11 11 13
3 6 3 7 6 4 17 10 8 10 7 7 9 11 12 13 16 17 15 14 14 13 11 10 8 8 8 9 9 8 8 8 8 8 7 7 6 6 6 6 7 8 8 9
5 9 3 3 5 5 9 14 22 21 19 17 11 13 15 17 16 18 17 17 17 15 14 13 12 11 9 9 8 7 7 6 6 5 5 4 3 3 3 4 5 4 6 6
3 3 5 6 15 24 6 4 9 12 15 15 20 19 18 19 20 19 20 19 19 18 17 16 14 14 13 13 11 9 8 8 7 6 5 4 3 2 1 1 2 3 3 4
11 7 5 5 3 2 1 1 6 17 22 19 16 21 24 23 24 22 23 22 20 20 18 19 17 17 16 17 14 13 11 11 10 9 8 6 6 5 4 3 2 2 2 2
Wind_Direction
5 97 82 76 43 53 25 5 285 283 356 13 290 284 289 281 275 273 276 276 276 269 276 257 285 294 291 289 284 280 271 264 259 254 252 250 244 241 239 235 235 240 234 232
23 78 64 67 70 35 352 312 295 304 16 329 295 291 283 272 263 263 272 290 277 270 279 290 298 297 292 288 283 281 280 272 262 256 251 249 250 250 246 242 235 233 239 234
63 83 118 142 82 0 216 294 328 319 344 297 343 296 251 316 134 213 260 275 288 278 319 316 307 298 290 283 279 273 270 271 269 258 254 249 243 242 244 244 242 237 234 238
79 132 231 255 267 97 273 37 351 343 27 307 39 292 291 281 204 192 215 236 300 343 321 308 306 296 287 281 275 272 268 262 262 260 251 248 245 237 235 235 242 242 239 234
92 160 182 184 44 99 21 22 308 313 37 326 262 234 269 266 253 301 303 357 346 330 317 307 299 293 286 292 287 274 262 260 254 255 250 247 244 243 242 240 234 239 236 242
91 94 312 5 59 13 338 316 303 66 169 255 224 179 275 319 0 7 358 348 333 324 318 310 301 299 303 304 295 281 271 256 251 251 252 246 244 242 238 236 237 235 236 236
1 324 84 333 38 82 359 321 289 241 222 230 339 141 252 299 56 33 350 334 326 324 317 313 312 312 311 309 310 289 277 257 253 254 250 246 243 239 237 235 232 232 234 234
4 45 207 142 176 200 215 144 64 283 328 302 67 242 269 53 14 357 343 338 332 325 326 321 313 311 309 308 308 298 282 257 258 257 249 249 245 239 237 234 234 236 237 235
348 105 72 172 74 129 179 206 1 304 247 253 227 253 254 10 351 351 341 333 329 328 327 326 323 320 309 306 306 303 279 267 255 258 259 252 248 242 239 237 233 234 233 235
56 294 69 124 135 172 135 7 239 161 290 296 299 280 277 349 337 331 332 330 328 327 331 337 336 328 324 322 312 295 277 272 248 257 265 251 248 247 243 242 238 232 234 236
113 62 106 47 205 187 163 218 216 287 263 286 317 292 213 346 337 328 327 328 331 336 344 349 355 357 355 344 329 299 255 246 247 252 261 256 251 249 244 241 240 238 237 236
185 168 265 226 157 181 203 247 191 158 15 240 244 267 82 15 328 329 323 325 336 342 353 10 17 18 16 10 7 348 306 242 226 233 249 255 252 251 250 247 243 240 239 240
176 220 288 153 127 209 244 220 233 211 101 225 251 271 240 356 322 326 321 329 344 347 356 7 19 17 11 11 15 22 18 264 219 220 223 237 241 247 251 249 248 246 247 247
199 258 245 241 268 247 231 219 204 194 237 253 242 288 302 297 306 314 317 334 342 346 354 11 18 19 18 19 20 23 35 49 208 216 229 229 222 235 245 249 246 245 250 253
217 253 248 259 270 270 261 236 241 195 220 247 271 244 283 272 242 278 308 328 341 354 9 18 17 20 24 25 28 31 33 38 56 205 219 220 207 227 239 243 241 238 252 255
197 274 301 285 263 250 253 250 238 237 241 243 253 274 278 116 229 272 305 326 341 358 0 11 16 18 23 19 22 31 42 43 34 19 212 224 231 225 206 231 248 242 237 240
196 262 330 269 313 287 280 249 227 226 227 231 241 249 158 227 218 248 287 311 332 347 0 3 12 16 17 21 24 32 41 42 44 55 78 109 149 201 228 245 250 246 250 270
293 278 233 278 303 254 246 184 198 259 235 219 237 247 241 206 234 246 258 281 308 336 360 2 9 13 18 25 31 37 42 45 55 65 77 84 103 110 166 271 274 267 276 286
204 282 283 259 303 278 294 142 170 196 283 229 231 232 199 172 278 271 252 253 280 324 344 356 4 7 13 23 26 35 48 48 52 61 73 71 68 64 53 57 214 174 206 274
226 215 276 333 264 259 227 155 139 27 291 355 178 204 153 140 229 275 200 233 258 283 317 344 4 8 15 21 25 27 36 49 54 59 66 80 86 76 66 67 95 116 112 103
176 213 214 229 261 285 271 144 140 112 246 315 208 179 167 181 214 230 238 243 257 271 289 325 345 1 13 17 23 31 36 45 49 59 68 76 83 85 86 87 91 100 104 112
177 170 192 190 232 263 141 119 181 226 309 292 245 229 220 227 235 254 258 250 261 273 281 298 324 341 1 5 5 18 28 38 40 47 60 75 82 88 96 96 97 101 102 102
240 201 198 188 218 188 191 221 227 281 280 295 261 254 251 246 245 259 259 254 261 267 271 280 298 311 330 340 345 356 12 18 25 32 42 55 67 78 91 105 113 114 109 103
244 216 230 2 281 258 245 258 262 268 268 272 269 266 258 259 255 261 262 260 262 266 271 274 278 287 299 307 315 328 337 340 345 0 12 25 39 66 88 112 122 122 126 119
237 116 219 261 280 283 318 257 270 257 264 273 270 262 256 260 260 257 259 260 261 264 266 267 273 280 287 293 299 308 308 306 307 310 317 324 327 340 38 96 121 118 117 107
194 200 185 226 208 241 311 78 276 296 296 290 281 267 263 258 261 261 260 265 266 267 269 273 277 279 286 288 290 291 291 289 285 279 274 270 265 259 256 247 235 215 182 156
Height
1517 1517 1522 1520 1521 1522 1523 1525 1526 1521 1515 1519 1516 1509 1503 1497 1496 1492 1491 1490 1490 1491 1492 1493 1492 1492 1490 1488 1486 1485 1484 1484 1485 1486 1487 1487 1488 1491 1495 1498 1502 1504 1508 1512
1519 1524 1524 1524 1526 1526 1527 1527 1526 1519 1517 1519 1512 1500 1495 1488 1486 1487 1487 1488 1487 1489 1489 1489 1487 1485 1485 1484 1481 1478 1476 1477 1477 1478 1480 1481 1482 1483 1487 1490 1494 1497 1500 1504
1520 1526 1527 1526 1528 1529 1526 1528 1527 1526 1522 1518 1513 1500 1486 1480 1481 1483 1486 1488 1488 1488 1486 1483 1481 1480 1478 1476 1474 1472 1470 1469 1469 1471 1473 1474 1476 1477 1479 1480 1484 1488 1492 1495
1523 1529 1529 1529 1529 1530 1535 1529 1528 1526 1534 1546 1529 1529 1497 1484 1481 1481 1484 1486 1487 1483 1481 1479 1477 1474 1471 1467 1465 1463 1462 1461 1461 1463 1465 1466 1467 1468 1471 1474 1477 1480 1485 1488
1529 1529 1531 1529 1527 1531 1531 1529 1528 1528 1537 1540 1523 1534 1502 1482 1479 1480 1483 1486 1482 1481 1479 1475 1472 1468 1463 1460 1456 1454 1452 1452 1453 1454 1456 1458 1459 1461 1464 1468 1471 1474 1477 1480
1527 1531 1530 1528 1528 1529 1530 1529 1528 1530 1537 1538 1522 1529 1511 1490 1486 1485 1485 1483 1482 1478 1474 1470 1465 1460 1455 1452 1448 1444 1442 1441 1443 1446 1447 1449 1450 1453 1456 1459 1463 1467 1471 1474
1529 1530 1528 1529 1530 1531 1534 1537 1538 1531 1536 1538 1527 1528 1505 1486 1486 1490 1491 1487 1481 1476 1470 1464 1458 1454 1449 1445 1441 1436 1433 1433 1436 1437 1438 1440 1443 1446 1448 1452 1456 1460 1463 1466
1533 1526 1529 1530 1532 1535 1540 1540 1535 1546 1534 1529 1522 1525 1501 1485 1487 1489 1489 1484 1478 1471 1465 1459 1454 1449 1444 1440 1435 1431 1430 1429 1430 1430 1431 1433 1436 1439 1442 1446 1450 1453 1456 1459
1526 1527 1529 1531 1532 1537 1537 1539 1534 1537 1524 1522 1515 1496 1483 1487 1487 1482 1482 1479 1473 1467 1461 1456 1450 1445 1440 1435 1430 1427 1425 1424 1424 1425 1427 1429 1430 1433 1435 1439 1444 1448 1451 1455
1535 1534 1529 1532 1534 1535 1535 1538 1537 1537 1534 1523 1506 1493 1495 1495 1493 1489 1483 1478 1472 1466 1460 1453 1447 1440 1435 1430 1426 1422 1420 1420 1421 1423 1424 1425 1426 1428 1431 1435 1439 1443 1447 1450
1536 1538 1534 1533 1531 1531 1535 1534 1535 1531 1526 1519 1512 1498 1501 1502 1497 1492 1486 1479 1472 1463 1457 1451 1445 1438 1432 1426 1420 1416 1415 1416 1418 1420 1421 1422 1423 1425 1427 1430 1433 1436 1441 1444
1534 1536 1534 1524 1517 1519 1521 1520 1522 1533 1521 1522 1518 1504 1499 1499 1497 1493 1488 1482 1475 1467 1459 1449 1442 1436 1430 1424 1418 1413 1412 1412 1414 1416 1418 1419 1420 1422 1424 1425 1428 1431 1434 1438
1534 1533 1528 1520 1523 1520 1521 1515 1515 1516 1524 1518 1517 1500 1492 1495 1494 1492 1488 1482 1476 1469 1462 1455 1446 1439 1432 1424 1418 1414 1410 1408 1411 1413 1415 1416 1419 1419 1421 1423 1425 1428 1431 1433
1531 1527 1524 1533 1518 1512 1515 1510 1511 1516 1520 1508 1505 1494 1492 1492 1491 1489 1486 1483 1477 1470 1465 1458 1450 1442 1436 1429 1421 1415 1410 1406 1407 1409 1411 1413 1415 1417 1419 1421 1422 1425 1427 1428
1528 1524 1519 1512 1507 1506 1505 1505 1505 1515 1508 1513 1493 1497 1487 1484 1484 1484 1483 1481 1477 1471 1464 1459 1454 1448 1440 1433 1427 1421 1415 1411 1409 1408 1409 1412 1413 1414 1416 1418 1420 1421 1424 1424
1523 1524 1515 1514 1502 1501 1499 1494 1495 1497 1497 1496 1492 1486 1478 1479 1481 1481 1480 1480 1475 1472 1466 1461 1457 1452 1446 1441 1435 1429 1423 1416 1411 1406 1406 1409 1412 1414 1416 1416 1418 1419 1420 1420
1521 1521 1521 1514 1497 1498 1499 1481 1483 1485 1484 1484 1489 1479 1476 1477 1478 1478 1477 1477 1475 1472 1468 1462 1458 1454 1450 1445 1440 1433 1428 1421 1415 1410 1409 1411 1412 1413 1415 1415 1417 1417 1418 1419
1520 1519 1518 1516 1504 1503 1476 1473 1474 1477 1474 1476 1474 1472 1472 1472 1474 1474 1474 1474 1473 1471 1468 1463 1459 1456 1453 1448 1444 1440 1434 1428 1421 1417 1415 1414 1414 1415 1416 1414 1414 1416 1416 1416
1518 1521 1521 1517 1513 1492 1471 1475 1475 1477 1471 1465 1467 1467 1469 1471 1473 1471 1470 1471 1471 1469 1467 1464 1461 1457 1453 1449 1446 1442 1438 1434 1428 1422 1420 1419 1418 1417 1416 1414 1413 1413 1415 1414
1515 1518 1525 1513 1515 1500 1471 1471 1472 1473 1480 1460 1460 1463 1467 1470 1478 1469 1467 1468 1468 1466 1465 1463 1460 1457 1454 1450 1447 1443 1440 1437 1433 1429 1427 1425 1423 1421 1419 1417 1416 1416 1415 1414
1520 1521 1523 1522 1516 1491 1467 1469 1472 1479 1475 1461 1461 1461 1463 1466 1465 1464 1465 1465 1465 1464 1463 1462 1459 1456 1454 1451 1448 1446 1443 1439 1437 1435 1433 1431 1429 1427 1425 1423 1422 1421 1420 1420
1504 1513 1514 1512 1508 1502 1468 1472 1475 1466 1462 1462 1462 1462 1462 1462 1462 1463 1463 1462 1462 1462 1461 1460 1458 1456 1454 1451 1449 1446 1444 1441 1439 1437 1435 1434 1432 1430 1428 1427 1427 1426 1426 1425
1499 1488 1488 1489 1481 1464 1463 1462 1462 1462 1462 1462 1461 1461 1461 1461 1460 1460 1460 1460 1460 1460 1459 1458 1457 1455 1453 1452 1450 1447 1445 1443 1441 1439 1437 1435 1434 1432 1431 1429 1428 1427 1426 1425
1484 1480 1485 1480 1461 1459 1460 1460 1459 1459 1458 1459 1458 1458 1457 1456 1457 1456 1456 1456 1456 1457 1456 1456 1455 1454 1453 1452 1450 1448 1446 1444 1442 1440 1438 1437 1435 1434 1433 1432 1431 1430 1428 1426
1481 1479 1478 1473 1461 1457 1457 1454 1454 1454 1454 1454 1454 1454 1453 1453 1452 1453 1452 1452 1452 1452 1452 1452 1451 1451 1451 1450 1449 1447 1445 1444 1442 1440 1439 1437 1436 1435 1434 1432 1431 1430 1428 1427
1468 1468 1472 1468 1456 1456 1455 1454 1453 1452 1450 1449 1449 1448 1448 1449 1448 1449 1448 1448 1448 1448 1448 1447 1447 1447 1448 1447 1447 1445 1444 1443 1442 1441 1439 1438 1437 1435 1434 1433 1432 1430 1429 1428